| time (UTC) | temp C | wind direction | speed KPH | gust KPH | rain 1hr cm | rain 24hr cm | rain mn cm | humidity % | barometer mb |
| 20260505003428 | 16 | 0.0 | 0.0 | 0.00 | 0.00 | 0.00 | 68 | 1177.1 | |
| 20260505002927 | 16 | 0.0 | 0.0 | 0.00 | 0.00 | 0.00 | 69 | 1177.1 | |
| 20260505002236 | 16 | 0.0 | 0.0 | 0.00 | 0.00 | 0.00 | 69 | 1182.2 | |
| 20260505001736 | 16 | 0.0 | 0.0 | 0.00 | 0.00 | 0.00 | 69 | 1182.2 | |
| 20260505001236 | 15 | 0.0 | 0.0 | 0.00 | 0.00 | 0.00 | 69 | 1178.1 | |
| 20260505000736 | 15 | 0.0 | 0.0 | 0.00 | 0.00 | 0.00 | 69 | 1178.1 | |
| 20260505000236 | 15 | 0.0 | 0.0 | 0.00 | 0.00 | 0.00 | 69 | 1178.1 | |
| 20260504235545 | 15 | 0.0 | 0.0 | 0.00 | 0.00 | 0.00 | 69 | 1185.2 | |
| 20260504235045 | 15 | 0.0 | 0.0 | 0.00 | 0.00 | 0.00 | 69 | 1185.2 | |
| 20260504234545 | 15 | 90 | 4.8 | 4.8 | 0.00 | 0.00 | 0.00 | 69 | 1185.2 |
| 20260504234045 | 15 | 90 | 4.8 | 4.8 | 0.00 | 0.00 | 0.00 | 69 | 1189.2 |
| 20260504233545 | 15 | 90 | 4.8 | 4.8 | 0.00 | 0.00 | 0.00 | 69 | 1189.2 |
| 20260504233045 | 15 | 0.0 | 0.0 | 0.00 | 0.00 | 0.00 | 69 | 1189.2 | |
| 20260504232353 | 15 | 112 | 6.4 | 6.4 | 0.00 | 0.00 | 0.00 | 69 | 1187.2 |
| 20260504231854 | 15 | 112 | 6.4 | 6.4 | 0.00 | 0.00 | 0.00 | 69 | 1187.2 |
| 20260504231353 | 15 | 112 | 6.4 | 6.4 | 0.00 | 0.00 | 0.00 | 68 | 1187.2 |
| 20260504230854 | 15 | 124 | 6.4 | 6.4 | 0.00 | 0.00 | 0.00 | 68 | 1187.2 |
| 20260504230354 | 15 | 120 | 4.8 | 8.0 | 0.00 | 0.00 | 0.00 | 68 | 1187.2 |
| 20260504225854 | 15 | 68 | 4.8 | 9.7 | 0.00 | 0.00 | 0.00 | 68 | 1187.2 |
| 20260504225202 | 15 | 60 | 6.4 | 9.7 | 0.00 | 0.00 | 0.00 | 68 | 1181.2 |
| 20260504224702 | 15 | 15 | 4.8 | 9.7 | 0.00 | 0.00 | 0.00 | 68 | 1181.2 |
| 20260504224202 | 15 | 101 | 8.0 | 9.7 | 0.00 | 0.00 | 0.00 | 68 | 1183.2 |
| 20260504223702 | 15 | 56 | 6.4 | 8.0 | 0.00 | 0.00 | 0.00 | 68 | 1183.2 |
| 20260504223202 | 15 | 112 | 4.8 | 6.4 | 0.00 | 0.00 | 0.00 | 68 | 1183.2 |
| 20260504222702 | 15 | 124 | 6.4 | 6.4 | 0.00 | 0.00 | 0.00 | 68 | 1185.2 |
| 20260504222011 | 15 | 82 | 4.8 | 6.4 | 0.00 | 0.00 | 0.00 | 68 | 1185.2 |
| 20260504221511 | -17 | 101 | 4.8 | 9.7 | 0.00 | 0.00 | 0.00 | 1185.2 | |
| 20260504220820 | 15 | 98 | 6.4 | 6.4 | 0.00 | 0.00 | 0.00 | 68 | 1191.3 |
| 20260504220320 | 15 | 38 | 4.8 | 6.4 | 0.00 | 0.00 | 0.00 | 68 | 1191.3 |
| 20260504215820 | 15 | 68 | 4.8 | 6.4 | 0.00 | 0.00 | 0.00 | 68 | 1191.3 |
| 20260504215320 | 15 | 98 | 3.2 | 4.8 | 0.00 | 0.00 | 0.00 | 68 | 1189.2 |
| 20260504214820 | 15 | 101 | 4.8 | 6.4 | 0.00 | 0.00 | 0.00 | 67 | 1189.2 |
| 20260504214320 | 15 | 94 | 6.4 | 6.4 | 0.00 | 0.00 | 0.00 | 67 | 1189.2 |
| 20260504213629 | 15 | 101 | 4.8 | 6.4 | 0.00 | 0.00 | 0.00 | 67 | 1190.2 |
| 20260504213128 | 15 | 90 | 3.2 | 6.4 | 0.00 | 0.00 | 0.00 | 67 | 1190.2 |
| 20260504212629 | 15 | 68 | 3.2 | 6.4 | 0.00 | 0.00 | 0.00 | 67 | 1194.3 |
| 20260504212128 | 15 | 82 | 3.2 | 6.4 | 0.00 | 0.00 | 0.00 | 67 | 1194.3 |
| 20260504211629 | 15 | 22 | 4.8 | 4.8 | 0.00 | 0.00 | 0.00 | 67 | 1194.3 |
| 20260504211128 | 15 | 45 | 1.6 | 3.2 | 0.00 | 0.00 | 0.00 | 67 | 1194.3 |
| 20260504210437 | 15 | 68 | 3.2 | 3.2 | 0.00 | 0.00 | 0.00 | 67 | 1194.3 |
| 20260504205937 | 15 | 68 | 3.2 | 3.2 | 0.00 | 0.00 | 0.00 | 67 | 1194.3 |
| 20260504205437 | 15 | 68 | 3.2 | 3.2 | 0.00 | 0.00 | 0.00 | 67 | 1196.3 |
| 20260504204937 | 15 | 101 | 3.2 | 3.2 | 0.00 | 0.00 | 0.00 | 67 | 1196.3 |
| 20260504204437 | 15 | 112 | 1.6 | 3.2 | 0.00 | 0.00 | 0.00 | 67 | 1196.3 |
| 20260504203746 | 15 | 90 | 0.0 | 4.8 | 0.00 | 0.00 | 0.00 | 66 | 1195.3 |
| 20260504203246 | 15 | 82 | 3.2 | 4.8 | 0.00 | 0.00 | 0.00 | 66 | 1195.3 |
| 20260504202746 | 15 | 90 | 1.6 | 8.0 | 0.00 | 0.00 | 0.00 | 66 | 1195.3 |
| 20260504202055 | 15 | 22 | 4.8 | 8.0 | 0.00 | 0.00 | 0.00 | 66 | 1197.3 |
| 20260504201555 | 15 | 112 | 6.4 | 9.7 | 0.00 | 0.00 | 0.00 | 66 | 1197.3 |
| 20260504201055 | 15 | 112 | 8.0 | 9.7 | 0.00 | 0.00 | 0.00 | 66 | 1203.4 |
| 20260504200555 | 15 | 101 | 6.4 | 9.7 | 0.00 | 0.00 | 0.00 | 66 | 1203.4 |
| 20260504200055 | 15 | 112 | 4.8 | 9.7 | 0.00 | 0.00 | 0.00 | 66 | 1203.4 |
| 20260504195555 | 15 | 90 | 9.7 | 9.7 | 0.00 | 0.00 | 0.00 | 66 | 1204.4 |
| 20260504195055 | 15 | 112 | 6.4 | 9.7 | 0.00 | 0.00 | 0.00 | 65 | 1204.4 |
| 20260504194555 | 15 | 112 | 9.7 | 9.7 | 0.00 | 0.00 | 0.00 | 65 | 1204.4 |
| 20260504194055 | 15 | 135 | 9.7 | 9.7 | 0.00 | 0.00 | 0.00 | 65 | 1204.4 |
| 20260504193555 | 15 | 79 | 8.0 | 9.7 | 0.00 | 0.00 | 0.00 | 65 | 1204.4 |
| 20260504192904 | 15 | 112 | 3.2 | 8.0 | 0.00 | 0.00 | 0.00 | 65 | 1204.4 |
| 20260504192403 | 15 | 112 | 8.0 | 8.0 | 0.00 | 0.00 | 0.00 | 65 | 1206.4 |
| 20260504191903 | 15 | 112 | 4.8 | 9.7 | 0.00 | 0.00 | 0.00 | 64 | 1206.4 |
| 20260504191403 | 15 | 90 | 6.4 | 9.7 | 0.00 | 0.00 | 0.00 | 64 | 1206.4 |
| 20260504190713 | 15 | 107 | 6.4 | 9.7 | 0.00 | 0.00 | 0.00 | 64 | 1205.4 |
| 20260504190212 | 15 | 52 | 6.4 | 9.7 | 0.00 | 0.00 | 0.00 | 64 | 1205.4 |
| 20260504185521 | 15 | 118 | 8.0 | 9.7 | 0.00 | 0.00 | 0.00 | 64 | 1202.4 |
| 20260504185021 | 15 | 112 | 4.8 | 9.7 | 0.00 | 0.00 | 0.00 | 64 | 1202.4 |
| 20260504184521 | 15 | 112 | 6.4 | 9.7 | 0.00 | 0.00 | 0.00 | 63 | 1202.4 |
| 20260504184021 | 15 | 142 | 4.8 | 9.7 | 0.00 | 0.00 | 0.00 | 63 | 1202.4 |
| 20260504183521 | 15 | 112 | 8.0 | 9.7 | 0.00 | 0.00 | 0.00 | 63 | 1202.4 |
| 20260504183021 | 15 | 112 | 4.8 | 9.7 | 0.00 | 0.00 | 0.00 | 63 | 1202.4 |
| 20260504182521 | 15 | 112 | 4.8 | 9.7 | 0.00 | 0.00 | 0.00 | 63 | 1206.4 |
| 20260504182021 | -17 | 129 | 4.8 | 9.7 | 0.00 | 0.00 | 0.00 | 1206.4 | |
| 20260504181330 | 15 | 112 | 6.4 | 8.0 | 0.00 | 0.00 | 0.00 | 62 | 1206.4 |
| 20260504180638 | 15 | 98 | 4.8 | 6.4 | 0.00 | 0.00 | 0.00 | 62 | 1208.4 |
| 20260504180139 | 15 | 82 | 1.6 | 3.2 | 0.00 | 0.00 | 0.00 | 62 | 1208.4 |
| 20260504175639 | 16 | 128 | 1.6 | 4.8 | 0.00 | 0.00 | 0.00 | 62 | 1206.4 |
| 20260504175138 | 16 | 98 | 4.8 | 6.4 | 0.00 | 0.00 | 0.00 | 62 | 1206.4 |
| 20260504174639 | 16 | 135 | 3.2 | 6.4 | 0.00 | 0.00 | 0.00 | 62 | 1206.4 |
| 20260504174138 | 16 | 112 | 4.8 | 6.4 | 0.00 | 0.00 | 0.00 | 61 | 1205.4 |
| 20260504173447 | 16 | 60 | 4.8 | 8.0 | 0.00 | 0.00 | 0.00 | 61 | 1205.4 |
| 20260504172947 | 16 | 0 | 0.0 | 8.0 | 0.00 | 0.00 | 0.00 | 61 | 1205.4 |
| 20260504172447 | 16 | 101 | 1.6 | 4.8 | 0.00 | 0.00 | 0.00 | 61 | 1206.4 |
| 20260504171947 | 16 | 112 | 3.2 | 6.4 | 0.00 | 0.00 | 0.00 | 61 | 1206.4 |
| 20260504171447 | 16 | 105 | 3.2 | 6.4 | 0.00 | 0.00 | 0.00 | 61 | 1206.4 |
| 20260504170947 | 16 | 135 | 3.2 | 8.0 | 0.00 | 0.00 | 0.00 | 61 | 1206.4 |
| 20260504170256 | 16 | 112 | 1.6 | 3.2 | 0.00 | 0.00 | 0.00 | 61 | 1206.4 |
| 20260504160414 | 16 | 150 | 1.6 | 6.4 | 0.00 | 0.00 | 0.00 | 60 | 1204.4 |
| 20260504150722 | 17 | 158 | 0.0 | 1.6 | 0.00 | 0.00 | 0.00 | 58 | 1205.4 |
| 20260504141148 | 17 | 90 | 3.2 | 8.0 | 0.00 | 0.00 | 0.00 | 58 | 1201.4 |
| 20260504140649 | 17 | 90 | 3.2 | 6.4 | 0.00 | 0.00 | 0.00 | 58 | 1201.4 |
| 20260504140148 | 17 | 112 | 4.8 | 6.4 | 0.00 | 0.00 | 0.00 | 58 | 1201.4 |
| 20260504130806 | 18 | 98 | 3.2 | 9.7 | 0.00 | 0.00 | 0.00 | 59 | 1203.4 |
| 20260504130306 | 18 | 98 | 3.2 | 6.4 | 0.00 | 0.00 | 0.00 | 59 | 1203.4 |
| 20260504110349 | 19 | 169 | 4.8 | 9.7 | 0.00 | 0.00 | 0.00 | 56 | 1214.5 |
| 20260504100507 | 20 | 163 | 4.8 | 6.4 | 0.00 | 0.00 | 0.00 | 50 | 1213.5 |
| 20260504090124 | 22 | 202 | 8.0 | 8.0 | 0.00 | 0.00 | 0.00 | 42 | 1219.5 |
| 20260504081742 | 23 | 0.0 | 0.0 | 0.00 | 0.00 | 0.00 | 36 | 1220.5 | |
| 20260504081242 | 23 | 0.0 | 0.0 | 0.00 | 0.00 | 0.00 | 35 | 1220.5 | |
| 20260504080742 | 23 | 0.0 | 0.0 | 0.00 | 0.00 | 0.00 | 34 | 1220.5 | |
| 20260504080241 | 24 | 0.0 | 0.0 | 0.00 | 0.00 | 0.00 | 33 | 1220.5 | |
| 20260504070208 | 30 | 0.0 | 0.0 | 0.00 | 0.00 | 0.00 | 19 | 1220.5 | |
| 20260504050251 | 23 | 0.0 | 0.0 | 0.00 | 0.00 | 0.00 | 39 | 1218.5 | |
| 20260504045751 | 23 | 0.0 | 0.0 | 0.00 | 0.00 | 0.00 | 40 | 1218.5 | |
| 20260504045251 | 22 | 0.0 | 0.0 | 0.00 | 0.00 | 0.00 | 41 | 1217.5 | |
| 20260504044751 | 22 | 0.0 | 0.0 | 0.00 | 0.00 | 0.00 | 41 | 1217.5 | |
| 20260504044251 | 22 | 0.0 | 0.0 | 0.00 | 0.00 | 0.00 | 41 | 1217.5 | |
| 20260504043751 | 22 | 0.0 | 0.0 | 0.00 | 0.00 | 0.00 | 42 | 1217.5 | |
| 20260504043251 | 22 | 0.0 | 0.0 | 0.00 | 0.00 | 0.00 | 42 | 1217.5 | |
| 20260504042751 | 22 | 0.0 | 0.0 | 0.00 | 0.00 | 0.00 | 42 | 1217.5 | |
| 20260504042251 | 22 | 0.0 | 0.0 | 0.00 | 0.00 | 0.00 | 43 | 1215.5 | |
| 20260504041600 | 22 | 0.0 | 0.0 | 0.00 | 0.00 | 0.00 | 43 | 1215.5 | |
| 20260504041100 | 21 | 0.0 | 0.0 | 0.00 | 0.00 | 0.00 | 44 | 1214.5 | |
| 20260504040600 | 21 | 0.0 | 0.0 | 0.00 | 0.00 | 0.00 | 45 | 1214.5 | |
| 20260504040100 | 21 | 0.0 | 0.0 | 0.00 | 0.00 | 0.00 | 45 | 1214.5 | |
| 20260504035408 | 21 | 0.0 | 0.0 | 0.00 | 0.00 | 0.00 | 45 | 1212.5 | |
| 20260504034908 | 21 | 0.0 | 0.0 | 0.00 | 0.00 | 0.00 | 46 | 1212.5 | |
| 20260504034408 | 21 | 0.0 | 0.0 | 0.00 | 0.00 | 0.00 | 46 | 1212.5 | |
| 20260504033908 | 21 | 0.0 | 0.0 | 0.00 | 0.00 | 0.00 | 48 | 1210.4 | |
| 20260504033408 | 21 | 0.0 | 0.0 | 0.00 | 0.00 | 0.00 | 48 | 1210.4 | |
| 20260504032908 | 21 | 0.0 | 0.0 | 0.00 | 0.00 | 0.00 | 49 | 1210.4 | |
| 20260504032217 | 20 | 0.0 | 0.0 | 0.00 | 0.00 | 0.00 | 50 | 1207.4 | |
| 20260504031525 | 20 | 0.0 | 0.0 | 0.00 | 0.00 | 0.00 | 52 | 1207.4 | |
| 20260504031026 | 20 | 0.0 | 0.0 | 0.00 | 0.00 | 0.00 | 52 | 1203.4 | |
| 20260504030525 | 20 | 0.0 | 0.0 | 0.00 | 0.00 | 0.00 | 52 | 1203.4 | |
| 20260504030026 | 20 | 0.0 | 0.0 | 0.00 | 0.00 | 0.00 | 53 | 1203.4 | |
| 20260504025526 | 20 | 0.0 | 0.0 | 0.00 | 0.00 | 0.00 | 54 | 1201.4 | |
| 20260504025025 | 20 | 0.0 | 0.0 | 0.00 | 0.00 | 0.00 | 55 | 1201.4 | |
| 20260504024334 | 19 | 0.0 | 0.0 | 0.00 | 0.00 | 0.00 | 56 | 1201.4 | |
| 20260504023834 | 19 | 0.0 | 0.0 | 0.00 | 0.00 | 0.00 | 57 | 1199.3 | |
| 20260504023335 | 19 | 0.0 | 0.0 | 0.00 | 0.00 | 0.00 | 59 | 1199.3 | |
| 20260504022834 | 19 | 0.0 | 0.0 | 0.00 | 0.00 | 0.00 | 60 | 1199.3 | |
| 20260504022334 | 19 | 0.0 | 0.0 | 0.00 | 0.00 | 0.00 | 60 | 1195.3 | |
| 20260504021834 | 18 | 0.0 | 0.0 | 0.00 | 0.00 | 0.00 | 61 | 1195.3 | |
| 20260504021334 | 18 | 0.0 | 0.0 | 0.00 | 0.00 | 0.00 | 62 | 1195.3 | |
| 20260504020834 | 18 | 0.0 | 0.0 | 0.00 | 0.00 | 0.00 | 63 | 1191.3 | |
| 20260504020143 | 18 | 0.0 | 0.0 | 0.00 | 0.00 | 0.00 | 64 | 1191.3 | |
| 20260504015643 | 18 | 0.0 | 0.0 | 0.00 | 0.00 | 0.00 | 65 | 1191.3 | |
| 20260504015143 | 18 | 0.0 | 0.0 | 0.00 | 0.00 | 0.00 | 65 | 1191.3 | |
| 20260504014643 | 18 | 0.0 | 0.0 | 0.00 | 0.00 | 0.00 | 66 | 1191.3 | |
| 20260504014143 | 18 | 0.0 | 0.0 | 0.00 | 0.00 | 0.00 | 67 | 1191.3 | |
| 20260504013451 | 18 | 0.0 | 0.0 | 0.00 | 0.00 | 0.00 | 67 | 1191.3 | |
| 20260504012800 | 18 | 0.0 | 0.0 | 0.00 | 0.00 | 0.00 | 68 | 1191.3 | |
| 20260504012300 | 17 | 0.0 | 0.0 | 0.00 | 0.00 | 0.00 | 68 | 1191.3 | |
| 20260504011800 | 17 | 0.0 | 0.0 | 0.00 | 0.00 | 0.00 | 68 | 1191.3 | |
| 20260504011300 | 17 | 0.0 | 0.0 | 0.00 | 0.00 | 0.00 | 69 | 1191.3 | |
| 20260504010800 | 17 | 0.0 | 0.0 | 0.00 | 0.00 | 0.00 | 69 | 1191.3 | |
| 20260504010300 | 17 | 0.0 | 0.0 | 0.00 | 0.00 | 0.00 | 69 | 1191.3 | |
| 20260504005800 | 17 | 0.0 | 0.0 | 0.00 | 0.00 | 0.00 | 69 | 1191.3 | |
| 20260504005300 | 17 | 0.0 | 0.0 | 0.00 | 0.00 | 0.00 | 69 | 1189.2 | |
| 20260504004800 | 17 | 0.0 | 0.0 | 0.00 | 0.00 | 0.00 | 69 | 1189.2 | |
| 20260504004109 | 17 | 0.0 | 0.0 | 0.00 | 0.00 | 0.00 | 69 | 1190.2 |